TIANMU-1 20

Last updated on Thu Oct 30 2025 00:02:23 GMT+0000 (Coordinated Universal Time)

1 58661U 23208B 25302.47513882 .00012719 00000+0 46913-3 0 9996 2 58661 97.4307 54.0491 0008767 68.1685 292.0486 15.27886650102139
UTC large
Height (km)
Speed (km/s)
/
Latitude / Longitude
Inclination (degrees)
Orbital Period (minutes)
Azimuth
Elevation
Range (km)
Doppler Factor

Next 0 passes for location: London (51.5072 / 0.1276)

Sorry there are no passes over London.